Time,TemperatureF,DewpointF,PressureIn,WindDirection,WindDirectionDegrees,WindSpeedMPH,WindSpeedGustMPH,Humidity,HourlyPrecipIn,Conditions,Clouds,dailyrainin,SoftwareType,DateUTC
2013-02-02 00:01:00,20.0,15.0,30.23,SW,225,5.0,9.0,80,0.00,,,0.00,weatherlink.com 1.10,2013-02-02 06:01:00,
2013-02-02 00:16:00,19.9,15.0,30.24,SW,221,8.0,10.0,82,0.00,,,0.00,weatherlink.com 1.10,2013-02-02 06:16:00,
2013-02-02 00:31:00,19.9,16.0,30.23,SW,234,4.0,8.0,83,0.00,,,0.00,weatherlink.com 1.10,2013-02-02 06:31:00,
2013-02-02 00:46:00,19.9,16.0,30.23,SW,232,4.0,8.0,83,0.00,,,0.00,weatherlink.com 1.10,2013-02-02 06:46:00,
2013-02-02 01:01:00,20.0,16.0,30.23,SW,229,5.0,7.0,84,0.00,,,0.00,weatherlink.com 1.10,2013-02-02 07:01:00,
2013-02-02 01:16:00,20.0,16.0,30.23,SW,230,7.0,10.0,84,0.00,,,0.00,weatherlink.com 1.10,2013-02-02 07:16:00,
2013-02-02 01:31:00,20.0,16.0,30.22,SW,225,8.0,11.0,85,0.00,,,0.00,weatherlink.com 1.10,2013-02-02 07:31:00,
2013-02-02 01:46:00,20.0,16.0,30.22,SW,218,11.0,14.0,84,0.00,,,0.00,weatherlink.com 1.10,2013-02-02 07:46:00,
2013-02-02 02:02:00,20.0,16.0,30.21,SW,221,9.0,15.0,85,0.00,,,0.00,weatherlink.com 1.10,2013-02-02 08:02:00,
2013-02-02 02:16:00,20.0,17.0,30.20,SSW,210,11.0,16.0,86,0.00,,,0.00,weatherlink.com 1.10,2013-02-02 08:16:00,
2013-02-02 02:31:00,20.0,17.0,30.18,SSW,200,12.0,17.0,87,0.00,,,0.00,weatherlink.com 1.10,2013-02-02 08:31:00,
2013-02-02 02:46:00,19.9,17.0,30.16,South,187,12.0,17.0,87,0.00,,,0.00,weatherlink.com 1.10,2013-02-02 08:46:00,
2013-02-02 03:02:00,19.9,17.0,30.16,SSW,210,15.0,18.0,88,0.00,,,0.00,weatherlink.com 1.10,2013-02-02 09:02:00,
2013-02-02 03:16:00,19.8,17.0,30.14,SSW,192,12.0,18.0,88,0.00,,,0.00,weatherlink.com 1.10,2013-02-02 09:16:00,
2013-02-02 03:31:00,19.8,17.0,30.14,SSW,206,14.0,15.0,88,0.00,,,0.00,weatherlink.com 1.10,2013-02-02 09:31:00,
2013-02-02 03:47:00,20.0,17.0,30.12,SSW,206,11.0,17.0,88,0.00,,,0.00,weatherlink.com 1.10,2013-02-02 09:47:00,
2013-02-02 04:02:00,20.2,17.0,30.12,SSW,213,14.0,16.0,88,0.00,,,0.00,weatherlink.com 1.10,2013-02-02 10:02:00,
2013-02-02 04:17:00,20.6,18.0,30.12,SSW,211,10.0,17.0,88,0.00,,,0.00,weatherlink.com 1.10,2013-02-02 10:17:00,
2013-02-02 04:32:00,21.0,18.0,30.11,SW,215,10.0,16.0,87,0.00,,,0.00,weatherlink.com 1.10,2013-02-02 10:32:00,
2013-02-02 04:47:00,21.3,18.0,30.11,SSW,213,10.0,14.0,87,0.00,,,0.00,weatherlink.com 1.10,2013-02-02 10:47:00,
2013-02-02 05:02:00,21.7,18.0,30.10,SW,219,10.0,17.0,86,0.00,,,0.00,weatherlink.com 1.10,2013-02-02 11:02:00,
2013-02-02 05:17:00,21.7,18.0,30.09,SW,214,9.0,15.0,86,0.00,,,0.00,weatherlink.com 1.10,2013-02-02 11:17:00,
2013-02-02 05:32:00,21.8,19.0,30.08,SW,222,13.0,16.0,87,0.00,,,0.00,weatherlink.com 1.10,2013-02-02 11:32:00,
2013-02-02 05:47:00,22.0,19.0,30.08,SW,216,10.0,14.0,87,0.00,,,0.00,weatherlink.com 1.10,2013-02-02 11:47:00,
2013-02-02 06:02:00,22.2,19.0,30.08,SW,222,10.0,15.0,87,0.00,,,0.00,weatherlink.com 1.10,2013-02-02 12:02:00,
2013-02-02 06:17:00,22.4,19.0,30.08,SW,226,10.0,14.0,87,0.00,,,0.00,weatherlink.com 1.10,2013-02-02 12:17:00,
2013-02-02 06:32:00,22.4,19.0,30.08,SW,233,7.0,14.0,87,0.00,,,0.00,weatherlink.com 1.10,2013-02-02 12:32:00,
2013-02-02 06:47:00,22.4,19.0,30.08,SW,223,9.0,14.0,87,0.00,,,0.00,weatherlink.com 1.10,2013-02-02 12:47:00,
2013-02-02 07:02:00,22.5,19.0,30.07,SW,234,7.0,14.0,87,0.00,,,0.00,weatherlink.com 1.10,2013-02-02 13:02:00,
2013-02-02 07:17:00,22.7,19.0,30.07,SW,236,7.0,12.0,87,0.00,,,0.00,weatherlink.com 1.10,2013-02-02 13:17:00,
2013-02-02 07:32:00,22.7,20.0,30.07,SW,227,8.0,10.0,88,0.00,,,0.00,weatherlink.com 1.10,2013-02-02 13:32:00,
2013-02-02 07:47:00,22.8,20.0,30.07,SW,236,7.0,11.0,88,0.00,,,0.00,weatherlink.com 1.10,2013-02-02 13:47:00,
2013-02-02 08:02:00,22.9,20.0,30.07,SW,233,5.0,10.0,89,0.00,,,0.00,weatherlink.com 1.10,2013-02-02 14:02:00,
2013-02-02 08:17:00,23.1,20.0,30.07,SW,232,9.0,13.0,88,0.00,,,0.00,weatherlink.com 1.10,2013-02-02 14:17:00,
2013-02-02 08:32:00,23.4,20.0,30.07,WSW,241,9.0,12.0,87,0.00,,,0.00,weatherlink.com 1.10,2013-02-02 14:32:00,
2013-02-02 08:47:00,23.6,20.0,30.06,SW,236,8.0,12.0,87,0.00,,,0.00,weatherlink.com 1.10,2013-02-02 14:47:00,
2013-02-02 09:02:00,23.8,21.0,30.05,WSW,250,12.0,12.0,87,0.00,,,0.00,weatherlink.com 1.10,2013-02-02 15:02:00,
2013-02-02 09:17:00,24.0,21.0,30.05,WSW,239,6.0,11.0,87,0.00,,,0.00,weatherlink.com 1.10,2013-02-02 15:17:00,
2013-02-02 09:32:00,24.3,21.0,30.04,WSW,245,9.0,11.0,87,0.00,,,0.00,weatherlink.com 1.10,2013-02-02 15:32:00,
2013-02-02 10:03:00,24.8,21.0,30.04,WSW,246,6.0,12.0,86,0.00,,,0.00,weatherlink.com 1.10,2013-02-02 16:03:00,
2013-02-02 10:18:00,25.1,22.0,30.04,WSW,250,9.0,11.0,86,0.00,,,0.00,weatherlink.com 1.10,2013-02-02 16:18:00,
2013-02-02 10:32:00,25.3,22.0,30.04,WSW,242,6.0,11.0,86,0.00,,,0.00,weatherlink.com 1.10,2013-02-02 16:32:00,
2013-02-02 10:47:00,25.6,22.0,30.04,West,267,7.0,9.0,86,0.00,,,0.00,weatherlink.com 1.10,2013-02-02 16:47:00,
2013-02-02 11:02:00,26.1,23.0,30.04,NW,306,4.0,9.0,86,0.00,,,0.00,weatherlink.com 1.10,2013-02-02 17:02:00,
2013-02-02 11:17:00,26.5,23.0,30.03,WSW,256,5.0,10.0,85,0.00,,,0.00,weatherlink.com 1.10,2013-02-02 17:17:00,
2013-02-02 11:33:00,27.1,23.0,30.02,West,279,3.0,8.0,85,0.00,,,0.00,weatherlink.com 1.10,2013-02-02 17:33:00,
2013-02-02 11:48:00,27.6,23.0,30.02,WNW,295,8.0,9.0,82,0.00,,,0.00,weatherlink.com 1.10,2013-02-02 17:48:00,
2013-02-02 12:03:00,27.9,23.0,30.02,NW,320,3.0,9.0,81,0.00,,,0.00,weatherlink.com 1.10,2013-02-02 18:03:00,
2013-02-02 12:18:00,28.1,23.0,30.01,NE,38,3.0,10.0,81,0.00,,,0.00,weatherlink.com 1.10,2013-02-02 18:18:00,
2013-02-02 12:33:00,28.3,23.0,30.01,NNW,328,4.0,11.0,80,0.00,,,0.00,weatherlink.com 1.10,2013-02-02 18:33:00,
2013-02-02 12:48:00,28.1,22.0,30.00,SW,216,3.0,8.0,79,0.00,,,0.00,weatherlink.com 1.10,2013-02-02 18:48:00,
2013-02-02 13:03:00,28.0,22.0,30.01,NW,321,0.0,7.0,79,0.00,,,0.00,weatherlink.com 1.10,2013-02-02 19:03:00,
2013-02-02 13:18:00,27.8,22.0,30.01,NW,319,0.0,7.0,78,0.00,,,0.00,weatherlink.com 1.10,2013-02-02 19:18:00,
2013-02-02 13:48:00,28.2,22.0,30.01,WNW,283,2.0,6.0,78,0.00,,,0.00,weatherlink.com 1.10,2013-02-02 19:48:00,
2013-02-02 14:03:00,28.0,22.0,30.01,West,273,2.0,7.0,79,0.00,,,0.00,weatherlink.com 1.10,2013-02-02 20:03:00,
2013-02-02 14:18:00,28.0,22.0,30.01,West,262,3.0,5.0,79,0.00,,,0.00,weatherlink.com 1.10,2013-02-02 20:18:00,
2013-02-02 14:33:00,27.8,22.0,30.02,NW,320,1.0,7.0,79,0.00,,,0.00,weatherlink.com 1.10,2013-02-02 20:33:00,
2013-02-02 14:48:00,26.3,22.0,30.02,North,5,1.0,4.0,83,0.00,,,0.00,weatherlink.com 1.10,2013-02-02 20:48:00,
2013-02-02 15:03:00,25.6,21.0,30.03,NW,321,3.0,6.0,83,0.00,,,0.00,weatherlink.com 1.10,2013-02-02 21:03:00,
2013-02-02 15:18:00,24.8,20.0,30.04,NNW,347,2.0,7.0,83,0.00,,,0.00,weatherlink.com 1.10,2013-02-02 21:18:00,
2013-02-02 15:33:00,24.2,20.0,30.05,North,355,2.0,9.0,83,0.00,,,0.00,weatherlink.com 1.10,2013-02-02 21:33:00,
2013-02-02 15:48:00,23.6,19.0,30.05,WNW,283,2.0,6.0,83,0.00,,,0.00,weatherlink.com 1.10,2013-02-02 21:48:00,
2013-02-02 16:03:00,23.3,19.0,30.06,NNE,15,4.0,8.0,83,0.00,,,0.00,weatherlink.com 1.10,2013-02-02 22:03:00,
2013-02-02 16:18:00,22.5,18.0,30.06,NNW,341,3.0,5.0,83,0.00,,,0.00,weatherlink.com 1.10,2013-02-02 22:18:00,
2013-02-02 16:33:00,21.6,17.0,30.07,NW,306,2.0,8.0,83,0.00,,,0.00,weatherlink.com 1.10,2013-02-02 22:33:00,
2013-02-02 16:48:00,20.8,16.0,30.07,WNW,291,11.0,11.0,83,0.00,,,0.00,weatherlink.com 1.10,2013-02-02 22:48:00,
2013-02-02 17:03:00,20.2,16.0,30.07,North,5,0.0,5.0,83,0.00,,,0.00,weatherlink.com 1.10,2013-02-02 23:03:00,
2013-02-02 17:18:00,19.7,15.0,30.07,NW,307,2.0,8.0,82,0.00,,,0.00,weatherlink.com 1.10,2013-02-02 23:18:00,
2013-02-02 17:33:00,19.5,15.0,30.07,West,271,5.0,6.0,83,0.00,,,0.00,weatherlink.com 1.10,2013-02-02 23:33:00,
2013-02-02 17:48:00,18.8,14.0,30.08,SW,222,4.0,10.0,82,0.00,,,0.00,weatherlink.com 1.10,2013-02-02 23:48:00,
2013-02-02 18:03:00,17.8,13.0,30.09,West,267,7.0,12.0,82,0.00,,,0.00,weatherlink.com 1.10,2013-02-03 00:03:00,
2013-02-02 18:18:00,16.9,12.0,30.09,WNW,286,2.0,11.0,81,0.00,,,0.00,weatherlink.com 1.10,2013-02-03 00:18:00,
2013-02-02 18:33:00,16.1,11.0,30.10,NW,317,4.0,10.0,81,0.00,,,0.00,weatherlink.com 1.10,2013-02-03 00:33:00,
2013-02-02 19:03:00,14.9,10.0,30.11,West,261,2.0,10.0,80,0.00,,,0.00,weatherlink.com 1.10,2013-02-03 01:03:00,
2013-02-02 19:18:00,14.4,9.0,30.11,NW,313,7.0,12.0,80,0.00,,,0.00,weatherlink.com 1.10,2013-02-03 01:18:00,
2013-02-02 19:33:00,14.0,9.0,30.12,North,5,2.0,10.0,79,0.00,,,0.00,weatherlink.com 1.10,2013-02-03 01:33:00,
2013-02-02 19:48:00,13.7,8.0,30.11,West,261,4.0,9.0,79,0.00,,,0.00,weatherlink.com 1.10,2013-02-03 01:48:00,
2013-02-02 20:03:00,13.4,8.0,30.11,West,269,1.0,8.0,79,0.00,,,0.00,weatherlink.com 1.10,2013-02-03 02:03:00,
2013-02-02 20:19:00,13.3,8.0,30.11,WNW,296,3.0,9.0,78,0.00,,,0.00,weatherlink.com 1.10,2013-02-03 02:19:00,
2013-02-02 20:33:00,13.1,8.0,30.10,North,355,1.0,5.0,79,0.00,,,0.00,weatherlink.com 1.10,2013-02-03 02:33:00,
2013-02-02 20:48:00,12.7,7.0,30.10,WNW,299,0.0,5.0,79,0.00,,,0.00,weatherlink.com 1.10,2013-02-03 02:48:00,
2013-02-02 21:04:00,12.1,7.0,30.10,West,264,1.0,7.0,79,0.00,,,0.00,weatherlink.com 1.10,2013-02-03 03:04:00,
2013-02-02 21:19:00,11.5,6.0,30.10,WNW,291,2.0,6.0,79,0.00,,,0.00,weatherlink.com 1.10,2013-02-03 03:19:00,
2013-02-02 21:33:00,11.5,7.0,30.10,West,270,0.0,5.0,80,0.00,,,0.00,weatherlink.com 1.10,2013-02-03 03:33:00,
2013-02-02 21:49:00,11.8,7.0,30.09,WSW,258,2.0,7.0,79,0.00,,,0.00,weatherlink.com 1.10,2013-02-03 03:49:00,
2013-02-02 22:04:00,11.9,6.0,30.09,WSW,249,1.0,7.0,76,0.00,,,0.00,weatherlink.com 1.10,2013-02-03 04:04:00,
2013-02-02 22:19:00,11.8,6.0,30.09,West,276,2.0,9.0,76,0.00,,,0.00,weatherlink.com 1.10,2013-02-03 04:19:00,
2013-02-02 22:34:00,11.8,6.0,30.08,West,275,2.0,7.0,77,0.00,,,0.00,weatherlink.com 1.10,2013-02-03 04:34:00,
2013-02-02 22:49:00,11.7,6.0,30.08,WNW,296,4.0,6.0,76,0.00,,,0.00,weatherlink.com 1.10,2013-02-03 04:49:00,
2013-02-02 23:04:00,11.2,5.0,30.07,NW,306,1.0,4.0,76,0.00,,,0.00,weatherlink.com 1.10,2013-02-03 05:04:00,
2013-02-02 23:19:00,10.3,4.0,30.06,North,355,0.0,2.0,77,0.00,,,0.00,weatherlink.com 1.10,2013-02-03 05:19:00,
2013-02-02 23:34:00,9.4,4.0,30.06,West,276,1.0,2.0,77,0.00,,,0.00,weatherlink.com 1.10,2013-02-03 05:34:00,
2013-02-02 23:49:00,8.5,3.0,30.07,West,276,0.0,1.0,79,0.00,,,0.00,weatherlink.com 1.10,2013-02-03 05:49:00,